KE5OYL Weather Reports


time (UTC)temp
C
wind
direction
speed
KPH
gust
KPH
rain 1hr
cm
rain 24hr
cm
rain mn
cm
humidity
%
barometer
mb
20260506112454 13 26 4.8 12.9 0.00 0.00 0.00 74 1012.4
20260506111950 13 18 8.0 17.7 0.00 0.00 0.00 75 1012.5
20260506111449 13 1 11.3 24.1 0.00 0.00 0.00 75 1012.5
20260506110946 14 3 8.0 17.7 0.00 0.00 0.00 74 1012.3
20260506110444 14 46 4.8 11.3 0.00 0.00 0.00 73 1012.1
20260506105940 15 341 14.5 17.7 0.00 0.00 0.00 73 1012.3
20260506105436 15 306 8.0 12.9 0.00 0.00 0.00 73 1012.1
20260506104934 15 355 4.8 11.3 0.00 0.00 0.00 73 1012.1
20260506104432 15 354 6.4 14.5 0.00 0.00 0.00 72 1011.8
20260506103930 15 288 8.0 12.9 0.00 0.00 0.00 73 1011.9
20260506103427 15 293 6.4 14.5 0.00 0.00 0.00 74 1011.4
20260506102924 15 289 14.5 16.1 0.00 0.00 0.00 72 1011.5
20260506102422 15 335 4.8 8.0 0.00 0.00 0.00 72 1011.1
20260506101919 15 314 9.7 11.3 0.00 0.00 0.00 72 1011.1
20260506101414 15 338 9.7 11.3 0.00 0.00 0.00 73 1011.1
20260506100913 15 311 6.4 11.3 0.00 0.00 0.00 73 1010.9
20260506100411 15 24 4.8 8.0 0.00 0.00 0.00 73 1010.8
20260506095908 15 340 4.8 16.1 0.00 0.00 0.00 74 1010.9
20260506095406 15 33 8.0 16.1 0.00 0.00 0.00 74 1010.8
20260506094902 15 354 9.7 16.1 0.00 0.00 0.00 74 1010.8
20260506094401 15 339 8.0 9.7 0.00 0.00 0.00 75 1011.0
20260506093858 15 13 4.8 14.5 0.00 0.00 0.00 76 1010.9
20260506093356 15 23 3.2 8.0 0.00 0.00 0.00 76 1010.7
20260506092853 15 13 6.4 9.7 0.00 0.00 0.00 75 1011.0
20260506092351 15 10 8.0 11.3 0.00 0.00 0.00 75 1010.7
20260506091847 15 339 3.2 9.7 0.00 0.00 0.00 75 1010.8
20260506091346 15 287 4.8 11.3 0.00 0.00 0.00 75 1010.8
20260506090843 15 336 9.7 16.1 0.00 0.00 0.00 75 1010.7
20260506090340 15 346 8.0 16.1 0.00 0.00 0.00 74 1010.7
20260506085837 15 18 4.8 12.9 0.00 0.00 0.00 74 1010.6
20260506085333 15 14 6.4 8.0 0.00 0.00 0.00 75 1010.7
20260506084830 15 336 12.9 16.1 0.00 0.00 0.00 75 1010.5
20260506084327 16 355 8.0 17.7 0.00 0.00 0.00 74 1010.6
20260506083823 16 44 8.0 12.9 0.00 0.00 0.00 74 1010.4
20260506083321 16 19 8.0 9.7 0.00 0.00 0.00 74 1010.5
20260506082818 16 6 4.8 12.9 0.00 0.00 0.00 74 1010.3
20260506082314 16 22 1.6 9.7 0.00 0.00 0.00 74 1010.2
20260506081811 16 24 4.8 9.7 0.00 0.00 0.00 74 1010.2
20260506081309 16 7 1.6 8.0 0.00 0.00 0.00 74 1010.1
20260506080806 16 356 6.4 14.5 0.00 0.00 0.00 74 1009.9
20260506080302 16 36 8.0 11.3 0.00 0.00 0.00 74 1009.9
20260506073246 16 28 8.0 14.5 0.00 0.00 0.00 74 1010.1
20260506072743 16 22 8.0 14.5 0.00 0.00 0.00 75 1010.2
20260506072241 16 347 9.7 12.9 0.00 0.00 0.00 74 1010.3
20260506071739 17 6 1.6 4.8 0.00 0.00 0.00 74 1010.4
20260506071236 17 17 9.7 12.9 0.00 0.00 0.00 74 1010.1
20260506070733 16 330 4.8 14.5 0.00 0.00 0.00 75 1010.2
20260506070230 16 359 6.4 14.5 0.00 0.00 0.00 75 1010.2
20260506062207 17 352 9.7 17.7 0.00 0.00 0.00 75 1010.0
20260506061703 17 45 8.0 27.4 0.00 0.00 0.00 75 1010.0
20260506061201 17 1 6.4 12.9 0.00 0.00 0.00 74 1010.2
20260506060659 17 10 6.4 16.1 0.00 0.00 0.00 74 1009.8
20260506060155 17 7 4.8 11.3 0.00 0.00 0.00 74 1010.2
20260506051127 18 25 9.7 12.9 0.00 0.00 0.00 74 1009.8
20260506050626 18 37 6.4 12.9 0.00 0.00 0.00 74 1009.9
20260506050122 18 31 8.0 17.7 0.00 0.00 0.00 75 1009.8
20260506045116 19 349 12.9 16.1 0.00 0.05 0.05 74 1009.8
20260506044614 20 2 4.8 9.7 0.00 0.05 0.05 73 1009.8
20260506044110 19 355 6.4 9.7 0.00 0.05 0.05 74 1009.7
20260506043607 20 2 4.8 17.7 0.00 0.05 0.05 74 1009.7
20260506043106 20 339 11.3 14.5 0.00 0.05 0.05 74 1009.8
20260506042605 20 328 14.5 17.7 0.00 0.05 0.05 72 1009.5
20260506042102 21 354 4.8 8.0 0.00 0.05 0.05 73 1009.5
20260506041601 21 359 9.7 12.9 0.00 0.05 0.05 72 1009.3
20260506041057 21 14 4.8 11.3 0.00 0.05 0.05 72 1009.2
20260506040555 21 7 9.7 14.5 0.00 0.05 0.05 72 1009.1
20260506040051 21 14 11.3 17.7 0.00 0.05 0.05 72 1009.0
20260506035548 21 342 8.0 12.9 0.00 0.05 0.05 72 1008.8
20260506035044 21 330 12.9 20.9 0.00 0.05 0.05 72 1009.0
20260506034542 22 347 14.5 22.5 0.00 0.05 0.05 72 1009.1
20260506034039 22 356 4.8 9.7 0.00 0.05 0.05 72 1008.8
20260506033536 22 342 8.0 20.9 0.00 0.05 0.05 72 1008.7
20260506033033 22 36 8.0 16.1 0.00 0.05 0.05 72 1008.6
20260506032530 22 357 12.9 14.5 0.00 0.05 0.05 71 1008.7
20260506032027 22 13 8.0 12.9 0.00 0.05 0.05 71 1008.6
20260506031525 22 12 8.0 14.5 0.00 0.05 0.05 71 1008.4
20260506031021 22 338 17.7 22.5 0.00 0.05 0.05 70 1008.3
20260506030520 23 14 9.7 11.3 0.00 0.05 0.05 69 1008.4
20260506030016 23 336 11.3 17.7 0.00 0.05 0.05 68 1008.3
20260506025513 23 350 9.7 17.7 0.00 0.05 0.05 67 1008.1
20260506025009 23 341 14.5 20.9 0.00 0.05 0.05 67 1007.8
20260506024507 23 18 3.2 9.7 0.00 0.05 0.05 67 1008.0
20260506024002 23 315 4.8 12.9 0.00 0.05 0.05 67 1007.7
20260506023459 23 311 9.7 20.9 0.00 0.05 0.05 67 1007.9
20260506022956 23 349 9.7 16.1 0.00 0.05 0.05 67 1007.2
20260506022454 23 344 3.2 14.5 0.00 0.05 0.05 67 1007.2
20260506021951 23 28 8.0 12.9 0.00 0.05 0.05 67 1007.1
20260506021449 23 33 4.8 12.9 0.00 0.05 0.05 67 1006.7
20260506020946 23 25 6.4 16.1 0.00 0.05 0.05 67 1006.9
20260506020443 24 16 3.2 8.0 0.00 0.05 0.05 67 1006.8
20260506015940 24 341 3.2 11.3 0.00 0.05 0.05 67 1006.7
20260506015438 24 289 8.0 12.9 0.00 0.05 0.05 67 1006.5
20260506014934 25 339 6.4 12.9 0.00 0.05 0.05 68 1006.5
20260506014431 25 3 4.8 9.7 0.00 0.05 0.05 68 1006.6
20260506013928 25 330 4.8 8.0 0.00 0.05 0.05 67 1006.4
20260506013426 25 2 1.6 11.3 0.00 0.05 0.05 67 1006.0
20260506012922 25 335 8.0 11.3 0.00 0.05 0.05 67 1006.0
20260506012418 25 319 16.1 22.5 0.00 0.05 0.05 67 1006.2
20260506011916 25 272 4.8 12.9 0.00 0.05 0.05 66 1006.2
20260506011413 26 341 6.4 16.1 0.00 0.05 0.05 66 1006.2
20260506010910 26 343 8.0 12.9 0.00 0.05 0.05 67 1006.0
20260506010408 26 343 4.8 4.8 0.00 0.05 0.05 67 1006.1
20260506005904 26 352 1.6 3.2 0.00 0.05 0.05 67 1005.7
20260506005402 26 334 9.7 12.9 0.00 0.05 0.05 67 1005.6
20260506004857 26 9 3.2 11.3 0.00 0.05 0.05 69 1005.3
20260506004355 25 348 4.8 14.5 0.00 0.05 0.05 69 1005.4
20260506003851 26 343 4.8 8.0 0.00 0.05 0.05 71 1005.4
20260506003347 26 12 4.8 11.3 0.00 0.05 0.05 71 1005.6
20260506002844 26 348 8.0 12.9 0.00 0.05 0.05 71 1005.6
20260506002340 25 3 1.6 3.2 0.00 0.05 0.05 74 1005.9
20260506001836 25 340 4.8 8.0 0.00 0.05 0.05 72 1005.6
20260506001333 25 318 6.4 11.3 0.13 0.05 0.05 72 1005.6
20260506000830 26 8 14.5 20.9 0.30 0.05 0.05 68 1005.6
20260506000330 29 300 4.8 9.7 0.00 0.00 0.00 59 1005.1
20260505235825 28 342 9.7 17.7 0.00 0.00 0.00 60 1005.0
20260505235322 28 302 8.0 16.1 0.00 0.00 0.00 70 1004.6
20260505234819 28 294 4.8 11.3 0.00 0.00 0.00 69 1004.5
20260505234317 29 209 8.0 14.5 0.00 0.00 0.00 69 1004.2
20260505233813 29 235 8.0 22.5 0.00 0.00 0.00 69 1004.3
20260505233311 30 193 14.5 14.5 0.00 0.00 0.00 68 1004.8
20260505232808 30 184 12.9 16.1 0.00 0.00 0.00 68 1004.5
20260505232306 30 188 12.9 20.9 0.00 0.00 0.00 67 1004.3
20260505231802 30 174 11.3 20.9 0.00 0.00 0.00 66 1004.4
20260505231301 30 176 8.0 11.3 0.00 0.00 0.00 64 1004.4
20260505230758 30 134 11.3 17.7 0.00 0.00 0.00 65 1004.3
20260505230255 31 174 14.5 20.9 0.00 0.00 0.00 63 1004.4
20260505225752 31 184 8.0 20.9 0.00 0.00 0.00 62 1004.3
20260505225249 31 146 8.0 16.1 0.00 0.00 0.00 61 1004.1
20260505224744 31 178 9.7 16.1 0.00 0.00 0.00 60 1003.9
20260505224242 31 191 8.0 14.5 0.00 0.00 0.00 61 1004.0
20260505223739 31 195 8.0 16.1 0.00 0.00 0.00 61 1003.9
20260505223235 31 171 11.3 16.1 0.00 0.00 0.00 62 1004.0
20260505222731 32 145 11.3 22.5 0.00 0.00 0.00 60 1004.0
20260505222228 31 223 4.8 14.5 0.00 0.00 0.00 60 1004.0
20260505221725 32 177 12.9 14.5 0.00 0.00 0.00 56 1004.0
20260505221221 32 237 8.0 11.3 0.00 0.00 0.00 56 1004.0
20260505220718 31 237 11.3 22.5 0.00 0.00 0.00 56 1004.0
20260505220216 32 235 8.0 17.7 0.00 0.00 0.00 56 1003.9
20260505215714 31 47 4.8 11.3 0.00 0.00 0.00 57 1004.1
20260505215212 32 232 8.0 20.9 0.00 0.00 0.00 56 1004.1
20260505214709 31 229 9.7 20.9 0.00 0.00 0.00 54 1003.9
20260505214207 32 267 9.7 12.9 0.00 0.00 0.00 56 1004.0
20260505213704 31 286 8.0 9.7 0.00 0.00 0.00 54 1004.1
20260505213201 32 298 6.4 22.5 0.00 0.00 0.00 54 1004.3
20260505212656 31 282 9.7 16.1 0.00 0.00 0.00 54 1004.4
20260505212154 31 259 4.8 14.5 0.00 0.00 0.00 53 1004.2
20260505211651 32 214 9.7 12.9 0.00 0.00 0.00 53 1004.5
20260505211148 31 205 9.7 22.5 0.00 0.00 0.00 53 1004.4
20260505210645 31 237 8.0 22.5 0.00 0.00 0.00 54 1004.3
20260505210142 31 271 14.5 17.7 0.00 0.00 0.00 53 1004.6
20260505205639 31 223 11.3 14.5 0.00 0.00 0.00 56 1004.6
20260505205137 31 180 8.0 12.9 0.00 0.00 0.00 55 1004.4
20260505204633 31 246 9.7 17.7 0.00 0.00 0.00 55 1004.8
20260505204132 31 258 11.3 22.5 0.00 0.00 0.00 57 1005.0
20260505203628 31 217 17.7 22.5 0.00 0.00 0.00 56 1004.8
20260505203125 31 250 14.5 20.9 0.00 0.00 0.00 56 1004.7
20260505202621 31 218 8.0 14.5 0.00 0.00 0.00 54 1004.9
20260505202117 31 240 14.5 24.1 0.00 0.00 0.00 56 1004.9
20260505201613 31 250 16.1 29.0 0.00 0.00 0.00 57 1004.9
20260505201111 30 220 14.5 17.7 0.00 0.00 0.00 57 1005.2
20260505200609 31 240 14.5 25.7 0.00 0.00 0.00 58 1004.9
20260505200106 31 236 19.3 27.4 0.00 0.00 0.00 59 1005.0
20260505195602 30 241 12.9 25.7 0.00 0.00 0.00 60 1005.1
20260505195100 30 208 16.1 22.5 0.00 0.00 0.00 62 1004.9
20260505194556 30 260 12.9 20.9 0.00 0.00 0.00 61 1005.1
20260505194052 30 212 14.5 25.7 0.00 0.00 0.00 62 1005.3
20260505193549 29 253 4.8 25.7 0.00 0.00 0.00 63 1005.3
20260505193047 30 263 20.9 29.0 0.00 0.00 0.00 61 1005.3
20260505192545 30 183 11.3 16.1 0.00 0.00 0.00 62 1005.2
20260505192042 30 169 11.3 22.5 0.00 0.00 0.00 62 1005.2
20260505191540 29 235 9.7 14.5 0.00 0.00 0.00 63 1005.2
20260505191038 29 195 11.3 16.1 0.00 0.00 0.00 63 1005.3
20260505190532 29 195 19.3 24.1 0.00 0.00 0.00 65 1005.2
20260505190029 29 238 11.3 17.7 0.00 0.00 0.00 64 1005.3
20260505185526 29 230 17.7 24.1 0.00 0.00 0.00 65 1005.7
20260505185022 28 244 9.7 17.7 0.00 0.00 0.00 66 1005.6
20260505184519 28 235 12.9 22.5 0.00 0.00 0.00 66 1005.7
20260505184016 28 175 19.3 24.1 0.00 0.00 0.00 66 1005.6
20260505183513 28 205 16.1 22.5 0.00 0.00 0.00 67 1005.9
20260505183010 28 218 19.3 22.5 0.00 0.00 0.00 68 1005.8
20260505182506 27 206 19.3 25.7 0.00 0.00 0.00 68 1005.8
20260505182003 28 204 12.9 17.7 0.00 0.00 0.00 68 1005.9
20260505181459 28 245 11.3 17.7 0.00 0.00 0.00 68 1005.9
20260505180956 28 212 14.5 24.1 0.00 0.00 0.00 68 1005.8
20260505180452 27 211 14.5 24.1 0.00 0.00 0.00 69 1006.0
20260505175949 27 193 12.9 22.5 0.00 0.00 0.00 69 1005.9
20260505175445 27 167 14.5 25.7 0.00 0.00 0.00 70 1005.8
20260505174942 27 202 9.7 17.7 0.00 0.00 0.00 70 1005.8
20260505174439 27 187 14.5 24.1 0.00 0.00 0.00 71 1005.9
20260505173936 27 204 17.7 25.7 0.00 0.00 0.00 71 1005.9
20260505173432 27 210 14.5 20.9 0.00 0.00 0.00 69 1006.1
20260505172929 27 191 12.9 25.7 0.00 0.00 0.00 70 1006.0
20260505172428 27 265 17.7 29.0 0.00 0.00 0.00 70 1006.0
20260505171926 27 249 11.3 25.7 0.00 0.00 0.00 70 1006.0
20260505171424 27 251 11.3 14.5 0.00 0.00 0.00 69 1005.8
20260505170920 27 212 12.9 20.9 0.00 0.00 0.00 69 1005.9
20260505170417 27 212 24.1 29.0 0.00 0.00 0.00 70 1006.1
20260505165913 26 236 16.1 22.5 0.00 0.00 0.00 70 1006.1
20260505165409 26 230 19.3 24.1 0.00 0.00 0.00 70 1006.1
20260505164904 26 203 17.7 24.1 0.00 0.00 0.00 71 1006.1
20260505164401 26 219 8.0 14.5 0.00 0.00 0.00 72 1006.0
20260505163859 26 194 12.9 20.9 0.00 0.00 0.00 72 1006.1
20260505163358 26 207 19.3 33.8 0.00 0.00 0.00 72 1006.1
20260505162856 25 192 16.1 24.1 0.00 0.00 0.00 74 1005.9
20260505162352 25 224 24.1 33.8 0.00 0.00 0.00 74 1005.8
20260505161849 25 230 11.3 29.0 0.00 0.00 0.00 74 1005.9
20260505161346 25 207 20.9 24.1 0.00 0.00 0.00 72 1005.8
20260505160843 26 221 20.9 25.7 0.00 0.00 0.00 72 1005.7
20260505160341 25 213 14.5 32.2 0.00 0.00 0.00 73 1005.6
20260505153320 25 239 16.1 27.4 0.00 0.00 0.00 75 1006.0
20260505152817 25 245 16.1 25.7 0.00 0.00 0.00 76 1005.9
20260505152314 25 208 19.3 29.0 0.00 0.00 0.00 76 1006.1
20260505151808 25 182 11.3 25.7 0.00 0.00 0.00 76 1006.2
20260505151305 24 228 6.4 24.1 0.00 0.00 0.00 77 1006.4
20260505150802 24 190 20.9 25.7 0.00 0.00 0.00 77 1006.2
20260505150259 24 241 17.7 22.5 0.00 0.00 0.00 77 1006.3
20260505140224 23 228 12.9 14.5 0.00 0.00 0.00 81 1006.2
20260505130147 22 237 9.7 12.9 0.00 0.00 0.00 84 1005.3
20260505124637 22 229 14.5 20.9 0.00 0.00 0.00 84 1005.6
20260505124134 22 208 4.8 16.1 0.00 0.00 0.00 84 1005.7
20260505123630 22 181 11.3 14.5 0.00 0.00 0.00 84 1005.3
20260505123127 21 229 14.5 17.7 0.00 0.00 0.00 85 1005.3
20260505122623 21 173 11.3 20.9 0.00 0.00 0.00 85 1005.0
20260505122120 21 170 8.0 24.1 0.00 0.00 0.00 85 1005.0
20260505121611 21 238 9.7 11.3 0.00 0.00 0.00 85 1004.8
20260505121108 21 165 8.0 17.7 0.00 0.00 0.00 85 1005.0
20260505120604 21 201 11.3 16.1 0.00 0.00 0.00 85 1004.9
20260505120100 21 192 11.3 16.1 0.00 0.00 0.00 85 1005.2
20260505115554 21 236 8.0 11.3 0.00 0.00 0.00 85 1005.0
20260505115052 21 157 17.7 22.5 0.00 0.00 0.00 85 1004.8
20260505114549 21 191 11.3 14.5 0.00 0.00 0.00 85 1004.9
20260505114045 21 209 8.0 16.1 0.00 0.00 0.00 85 1004.9
20260505113542 21 172 9.7 17.7 0.00 0.00 0.00 85 1005.1
20260505113038 21 205 11.3 17.7 0.00 0.00 0.00 85 1005.0